SCP
-0 -0 -0 -0 -0 -0 -0 -0 0 -0 -0 -0 -0 -0 -0 0 0 0 0 0 0 0 0 0 0 0 0 0 0 0 0 0
0 0 -0 -0 -0 -0 -0 -0 -0 0 -0 -0 -0 0 0 0 0 0 0 0 0 0 0 0 0 0 0 0 0 0 0 0
-0 -0 -0 -0 -0 -0 -0 -0 -0 -0 -0 0 0 0 0 0 0 0 0 0 0 0 0 0 0 0 0 0 0 0 0 0
-0 -0 -0 -0 -0 -0 -0 -0 -0 0 -0 0 0 0 0 0 0 0 0 0 0 0 0 0 0 0 0 0 0 0 0 0
-0 -0 -0 -0 -0 -0 -0 -0 -0 0 0 0 0 0 0 0 0 0 0 0 0 0 0 0 0 0 0 0 0 0 0 0
0 -0 -0 -0 -0 -0 -0 0 0 0 0 0 0 0 0 0 0 0 0 0 0 0 0 0 0 0 0 0 0 0 0 0
0 -0 0 0 -0 0 0 0 0 0 0 0 1 0 0 0 0 0 0 0 0 0 0 0 0 0 0 0 0 0 0 0
-0 -0 0 0 -0 -0 0 0 0 0 0 1 1 0 0 0 0 0 0 0 0 0 0 0 0 0 0 0 -0 0 -0 0
-0 -0 -0 0 0 -0 -0 -0 0 0 0 0 0 0 -0 0 0 0 0 0 0 0 0 0 0 0 0 0 0 0 0 0
-0 -0 -0 -0 -0 -0 -0 -0 -0 0 0 0 0 0 0 0 0 0 0 0 0 0 0 0 0 0 0 0 0 -0 -0 0
-0 -0 -0 -0 -0 -0 -0 -0 -0 0 0 0 0 0 0 0 0 0 0 0 0 0 0 0 0 0 0 0 0 0 0 0
-0 -0 -0 0 0 0 0 0 0 0 0 0 0 0 0 0 0 0 0 0 0 0 0 0 0 0 0 0 0 0 0 0
-0 0 0 0 0 0 0 0 0 0 0 0 0 0 0 0 0 0 0 0 0 0 0 0 0 0 0 0 0 0 0 0
-0 -0 -0 0 0 0 0 0 0 0 0 0 0 0 0 0 0 0 0 0 0 0 0 0 0 0 0 0 0 0 0 0
-0 -0 -0 -0 0 0 1 1 1 0 0 0 0 0 0 1 0 0 0 0 0 0 0 0 0 0 0 0 0 0 0 0
-0 -0 0 0 0 0 0 0 1 1 1 1 1 1 1 0 0 0 1 0 0 1 0 0 0 0 0 0 0 0 0 0
0 0 0 0 0 0 1 1 1 1 1 1 1 0 0 0 0 1 0 1 1 1 1 0 0 0 0 0 0 0 0 0
0 0 0 0 0 1 1 1 2 2 2 1 1 1 0 0 0 0 1 1 1 1 1 0 0 0 0 0 0 0 0 0
0 0 0 0 1 1 2 3 3 4 5 3 0 0 0 0 0 0 1 1 2 1 1 1 0 0 0 0 0 0 0 0
0 0 0 1 0 1 2 4 4 2 0 0 0 0 0 -0 -0 0 1 1 2 1 1 1 0 0 0 0 0 0 0 0
Wind_Speed_500mb
32 29 27 27 27 25 25 24 28 21 18 18 16 14 15 11 9 7 7 2 2 3 7 7 6 15 9 9 10 6 6 6
31 28 25 25 26 25 26 23 26 25 17 16 14 12 11 9 8 5 5 2 4 2 1 4 4 4 7 7 6 9 7 10
28 24 24 25 26 26 26 26 25 26 21 17 15 13 11 10 7 5 4 5 5 2 6 3 5 6 6 8 11 5 7 11
29 27 25 26 25 26 26 25 25 26 23 20 17 14 13 10 8 8 7 5 8 5 5 3 7 9 9 10 2 9 6 8
28 24 26 26 28 28 28 26 27 26 26 23 17 17 15 13 12 13 13 10 11 10 5 6 11 11 14 15 7 8 7 8
24 25 26 28 30 32 31 28 28 30 30 27 23 23 21 17 14 14 19 16 14 11 10 11 8 11 12 16 7 10 12 10
19 20 24 27 29 31 34 35 33 33 31 24 25 22 22 20 17 15 22 18 18 11 11 7 10 12 14 16 10 15 16 15
17 14 17 22 29 31 33 38 38 36 35 30 27 20 22 23 21 20 25 16 21 18 12 11 10 13 15 11 13 13 19 17
20 12 12 20 25 30 35 40 43 42 36 30 23 20 19 19 16 22 23 22 28 21 11 16 13 17 16 16 13 16 17 18
23 21 15 14 22 25 26 34 41 43 35 24 19 12 11 11 13 16 20 26 27 22 17 16 19 16 19 16 19 16 16 19
17 22 19 13 18 22 23 29 33 39 31 23 20 14 7 7 11 13 18 20 21 22 22 17 25 20 17 17 18 23 19 20
13 20 21 18 19 21 22 25 30 31 25 20 18 12 8 8 12 15 26 24 23 23 22 21 25 20 22 20 20 21 27 24
13 12 15 16 15 18 21 23 27 29 27 25 17 13 12 17 19 21 20 22 20 22 23 22 24 30 27 28 25 24 24 26
13 13 14 14 14 15 15 19 24 27 26 25 16 17 17 19 20 17 16 16 20 22 22 24 26 30 37 34 36 32 26 27
19 17 14 15 18 21 22 26 28 27 26 23 19 20 22 24 18 16 16 16 19 20 24 26 24 29 33 34 37 35 34 32
25 23 21 22 24 25 26 27 28 27 24 21 24 22 21 19 20 18 16 15 20 25 28 28 26 27 31 34 35 37 34 37
27 25 24 22 25 26 26 28 27 23 20 19 20 19 18 21 25 25 20 20 19 23 27 28 30 27 31 35 37 37 41 43
28 27 26 24 22 21 19 19 17 17 15 10 9 14 19 28 30 26 26 25 28 29 28 26 29 32 30 34 35 39 48 48
28 28 26 24 17 15 16 17 17 18 17 19 3 17 15 37 48 39 32 30 35 35 33 33 32 33 33 40 44 39 39 40
25 26 25 22 17 16 16 20 28 27 18 14 14 36 51 76 62 50 42 41 35 39 37 37 36 36 31 30 44 48 48 42
Wind_Direction_500mb
153 149 155 165 167 173 170 173 169 172 171 169 172 176 178 177 169 139 191 145 350 46 346 4 68 75 48 77 75 79 97 91
163 160 163 168 175 177 177 182 182 172 182 175 184 183 184 174 186 173 212 69 305 221 250 234 143 137 149 124 191 123 101 93
172 174 174 177 183 185 185 184 189 182 182 190 185 186 191 196 193 219 215 222 253 257 269 217 200 187 175 166 104 102 104 97
181 186 191 191 193 197 192 190 195 192 187 194 195 194 206 202 210 230 266 254 290 281 290 253 221 205 194 155 204 126 127 116
196 199 203 206 206 204 206 201 203 198 200 201 200 208 203 206 216 251 264 289 296 307 263 245 222 214 204 196 36 187 172 143
202 211 215 214 209 212 210 204 210 210 206 209 210 219 217 212 222 243 271 288 296 303 283 228 228 215 211 214 228 220 196 184
195 210 212 211 213 208 212 211 214 221 216 210 223 245 242 235 234 246 260 276 280 275 291 235 252 226 221 228 242 212 212 204
191 193 206 212 208 207 209 214 216 217 218 228 241 260 269 262 247 250 263 262 278 282 290 244 241 228 232 224 224 220 212 223
208 215 219 219 212 210 212 215 214 215 218 220 234 251 279 266 244 258 259 261 280 283 279 266 248 225 218 228 237 226 225 228
224 223 230 223 209 210 211 213 211 211 216 222 227 227 231 216 234 280 286 287 286 277 253 252 241 224 227 240 216 211 219 225
206 205 199 203 201 206 208 209 205 205 205 229 228 224 221 252 262 273 291 282 277 267 263 245 246 229 242 232 215 208 220 237
153 165 180 190 197 199 197 198 195 197 210 219 223 212 216 250 284 255 283 272 266 261 263 266 247 227 226 231 224 219 230 230
144 165 183 190 193 195 192 187 190 201 212 217 231 223 241 270 283 274 279 269 268 268 261 263 251 228 236 219 226 244 239 232
166 164 172 181 199 210 203 196 200 210 219 228 247 237 245 259 272 274 278 269 275 279 258 266 256 235 232 235 241 254 245 237
183 190 199 197 197 201 201 204 209 217 225 235 251 261 261 268 269 276 259 275 276 261 276 278 261 252 237 239 245 247 254 242
195 200 201 204 204 199 199 204 205 210 219 235 245 264 257 259 265 254 262 265 279 269 286 286 282 253 249 247 248 253 250 251
209 210 212 210 212 206 199 198 198 211 220 240 250 274 268 255 250 274 266 267 269 276 279 278 277 267 257 252 251 244 241 255
224 226 225 226 215 214 204 204 194 197 198 223 281 298 293 281 265 269 271 277 283 277 275 277 278 276 269 264 255 252 258 256
243 240 238 235 224 203 198 186 174 173 174 188 186 338 319 321 287 279 279 281 287 284 275 273 280 277 276 268 261 251 252 257
272 261 251 242 225 203 189 168 194 201 211 213 205 295 304 295 279 277 285 287 279 280 274 276 273 275 273 282 269 261 257 251
Wind_Speed_850mb
32 29 27 27 27 25 25 24 28 21 18 18 16 14 15 11 9 7 7 2 2 3 7 7 6 15 9 9 10 6 6 6
31 28 25 25 26 25 26 23 26 25 17 16 14 12 11 9 8 5 5 2 4 2 1 4 4 4 7 7 6 9 7 10
28 24 24 25 26 26 26 26 25 26 21 17 15 13 11 10 7 5 4 5 5 2 6 3 5 6 6 8 11 5 7 11
29 27 25 26 25 26 26 25 25 26 23 20 17 14 13 10 8 8 7 5 8 5 5 3 7 9 9 10 2 9 6 8
28 24 26 26 28 28 28 26 27 26 26 23 17 17 15 13 12 13 13 10 11 10 5 6 11 11 14 15 7 8 7 8
24 25 26 28 30 32 31 28 28 30 30 27 23 23 21 17 14 14 19 16 14 11 10 11 8 11 12 16 7 10 12 10
19 20 24 27 29 31 34 35 33 33 31 24 25 22 22 20 17 15 22 18 18 11 11 7 10 12 14 16 10 15 16 15
17 14 17 22 29 31 33 38 38 36 35 30 27 20 22 23 21 20 25 16 21 18 12 11 10 13 15 11 13 13 19 17
20 12 12 20 25 30 35 40 43 42 36 30 23 20 19 19 16 22 23 22 28 21 11 16 13 17 16 16 13 16 17 18
23 21 15 14 22 25 26 34 41 43 35 24 19 12 11 11 13 16 20 26 27 22 17 16 19 16 19 16 19 16 16 19
17 22 19 13 18 22 23 29 33 39 31 23 20 14 7 7 11 13 18 20 21 22 22 17 25 20 17 17 18 23 19 20
13 20 21 18 19 21 22 25 30 31 25 20 18 12 8 8 12 15 26 24 23 23 22 21 25 20 22 20 20 21 27 24
13 12 15 16 15 18 21 23 27 29 27 25 17 13 12 17 19 21 20 22 20 22 23 22 24 30 27 28 25 24 24 26
13 13 14 14 14 15 15 19 24 27 26 25 16 17 17 19 20 17 16 16 20 22 22 24 26 30 37 34 36 32 26 27
19 17 14 15 18 21 22 26 28 27 26 23 19 20 22 24 18 16 16 16 19 20 24 26 24 29 33 34 37 35 34 32
25 23 21 22 24 25 26 27 28 27 24 21 24 22 21 19 20 18 16 15 20 25 28 28 26 27 31 34 35 37 34 37
27 25 24 22 25 26 26 28 27 23 20 19 20 19 18 21 25 25 20 20 19 23 27 28 30 27 31 35 37 37 41 43
28 27 26 24 22 21 19 19 17 17 15 10 9 14 19 28 30 26 26 25 28 29 28 26 29 32 30 34 35 39 48 48
28 28 26 24 17 15 16 17 17 18 17 19 3 17 15 37 48 39 32 30 35 35 33 33 32 33 33 40 44 39 39 40
25 26 25 22 17 16 16 20 28 27 18 14 14 36 51 76 62 50 42 41 35 39 37 37 36 36 31 30 44 48 48 42
Wind_Direction_850mb
153 149 155 165 167 173 170 173 169 172 171 169 172 176 178 177 169 139 191 145 350 46 346 4 68 75 48 77 75 79 97 91
163 160 163 168 175 177 177 182 182 172 182 175 184 183 184 174 186 173 212 69 305 221 250 234 143 137 149 124 191 123 101 93
172 174 174 177 183 185 185 184 189 182 182 190 185 186 191 196 193 219 215 222 253 257 269 217 200 187 175 166 104 102 104 97
181 186 191 191 193 197 192 190 195 192 187 194 195 194 206 202 210 230 266 254 290 281 290 253 221 205 194 155 204 126 127 116
196 199 203 206 206 204 206 201 203 198 200 201 200 208 203 206 216 251 264 289 296 307 263 245 222 214 204 196 36 187 172 143
202 211 215 214 209 212 210 204 210 210 206 209 210 219 217 212 222 243 271 288 296 303 283 228 228 215 211 214 228 220 196 184
195 210 212 211 213 208 212 211 214 221 216 210 223 245 242 235 234 246 260 276 280 275 291 235 252 226 221 228 242 212 212 204
191 193 206 212 208 207 209 214 216 217 218 228 241 260 269 262 247 250 263 262 278 282 290 244 241 228 232 224 224 220 212 223
208 215 219 219 212 210 212 215 214 215 218 220 234 251 279 266 244 258 259 261 280 283 279 266 248 225 218 228 237 226 225 228
224 223 230 223 209 210 211 213 211 211 216 222 227 227 231 216 234 280 286 287 286 277 253 252 241 224 227 240 216 211 219 225
206 205 199 203 201 206 208 209 205 205 205 229 228 224 221 252 262 273 291 282 277 267 263 245 246 229 242 232 215 208 220 237
153 165 180 190 197 199 197 198 195 197 210 219 223 212 216 250 284 255 283 272 266 261 263 266 247 227 226 231 224 219 230 230
144 165 183 190 193 195 192 187 190 201 212 217 231 223 241 270 283 274 279 269 268 268 261 263 251 228 236 219 226 244 239 232
166 164 172 181 199 210 203 196 200 210 219 228 247 237 245 259 272 274 278 269 275 279 258 266 256 235 232 235 241 254 245 237
183 190 199 197 197 201 201 204 209 217 225 235 251 261 261 268 269 276 259 275 276 261 276 278 261 252 237 239 245 247 254 242
195 200 201 204 204 199 199 204 205 210 219 235 245 264 257 259 265 254 262 265 279 269 286 286 282 253 249 247 248 253 250 251
209 210 212 210 212 206 199 198 198 211 220 240 250 274 268 255 250 274 266 267 269 276 279 278 277 267 257 252 251 244 241 255
224 226 225 226 215 214 204 204 194 197 198 223 281 298 293 281 265 269 271 277 283 277 275 277 278 276 269 264 255 252 258 256
243 240 238 235 224 203 198 186 174 173 174 188 186 338 319 321 287 279 279 281 287 284 275 273 280 277 276 268 261 251 252 257
272 261 251 242 225 203 189 168 194 201 211 213 205 295 304 295 279 277 285 287 279 280 274 276 273 275 273 282 269 261 257 251